Content
SEND FEEDBACK

Daily
Averages
Monthly
Summary
United States of America

UMATAC, GUAM


Home > North America > United States > Guam
Elevation: 190 feet     Latitude: 13 17N     Longitude: 144 40E

WEATHER
 
SELECT A DAY
Number of Records: 356,513;   Date Range: 1/1/95 - 12/18/14
 
SHARE

PRINT THIS DATA

[ ← Previous Day ]
WEATHER ALMANAC - JANUARY 1, 2013
[ Next Day → ]
[ °C ]   °F
Weather ElementAverageHighLow
Temperature80.1 °F84.2 °F (3:34 pm)77 °F (3:25 am)
Dewpoint77 °F78.8 °F (9:36 am)75.2 °F (12:41 am)
Humidity90.3 %94 % (12:16 am)79 % (3:34 pm)
Barometer29.83 in29.88 in (9:55 pm)29.77 in (3:11 am)
Wind Speed17.9 mph26.5 mph (4:32 am)
Wind Gust33.4 mph (9:59 am)
Weather ElementAverage
Visibility8.2 mi
Wind DirectionENE (70.5 °)

Weather ElementTotal
Precipitation0.40 in
Cooling Degree Days15.6 (Base 65)
Growing Degree Days30.6 (Base 50)
Averaged from 176 records on January 1, 2013
WEATHER CONDITIONS BREAKOUT
WIND DIRECTION BREAKOUT
WEATHER BY HOUR - JANUARY 1, 2013
[ °C ]   °F
Local TimeTemperatureDewpointHumidityBarometerVisibilityWind DirectionWind SpeedGust SpeedPrecipitationEventsConditions
12:16 AM78.8 °F77.0 °F94 %29.81 in10.0 miENE (60°)16.1 mphScattered Clouds
12:18 AM78.8 °F77.0 °F94 %29.81 in10.0 miENE (60°)16.1 mphMostly Cloudy
12:20 AM78.8 °F77.0 °F94 %29.81 in10.0 miENE (70°)16.1 mphScattered Clouds
12:25 AM80.6 °F77.0 °F89 %29.81 in10.0 miENE (60°)19.6 mphMostly Cloudy
12:28 AM80.6 °F77.0 °F89 %29.81 in10.0 miENE (60°)19.6 mphScattered Clouds
12:35 AM80.6 °F77.0 °F89 %29.81 in10.0 miENE (60°)19.6 mphMostly Cloudy
12:41 AM80.6 °F75.2 °F84 %29.81 in10.0 miENE (60°)19.6 mphScattered Clouds
12:43 AM80.6 °F75.2 °F84 %29.81 in10.0 miENE (60°)18.4 mphMostly Cloudy
12:55 AM80.1 °F76.1 °F88 %29.81 in10.0 miENE (60°)19.6 mph26.5 mphMostly Cloudy
1:26 AM80.6 °F75.2 °F84 %29.80 in10.0 miENE (60°)17.3 mphMostly Cloudy
1:46 AM80.6 °F75.2 °F84 %29.79 in10.0 miENE (60°)20.7 mphMostly Cloudy
1:50 AM80.6 °F75.2 °F84 %29.79 in10.0 miENE (60°)18.4 mphMostly Cloudy
1:52 AM80.6 °F75.2 °F84 %29.79 in10.0 miENE (60°)18.4 mphMostly Cloudy
1:55 AM79.9 °F75.7 °F87 %29.79 in10.0 miENE (60°)19.6 mph25.3 mphMostly Cloudy
2:08 AM80.6 °F75.2 °F84 %29.78 in10.0 miNE (50°)21.9 mph27.6 mphLight Drizzle
2:22 AM78.8 °F75.2 °F89 %29.78 in8.0 miENE (60°)20.7 mph27.6 mphOvercast
2:55 AM79.3 °F76.3 °F90 %29.78 in10.0 miENE (70°)17.3 mph24.2 mph0.04 inMostly Cloudy
3:11 AM78.8 °F77.0 °F94 %29.77 in9.0 miENE (70°)15.0 mphLight Drizzle
3:13 AM78.8 °F77.0 °F94 %29.78 in8.0 miENE (60°)19.6 mph28.8 mphLight Drizzle
3:15 AM78.8 °F77.0 °F94 %29.78 in6.0 miENE (60°)18.4 mph28.8 mphRainLight Rain
3:17 AM78.8 °F77.0 °F94 %29.78 in6.0 miENE (60°)18.4 mph28.8 mphRainRain
3:18 AM78.8 °F77.0 °F94 %29.78 in6.0 miENE (60°)18.4 mph28.8 mphRainRain
3:22 AM78.8 °F75.2 °F89 %29.78 in7.0 miENE (70°)16.1 mph28.8 mphRainLight Rain
3:24 AM78.8 °F75.2 °F89 %29.78 in9.0 miENE (60°)16.1 mphRainLight Rain
3:25 AM77.0 °F75.2 °F94 %29.78 in10.0 miENE (70°)16.1 mphMostly Cloudy
3:29 AM77.0 °F75.2 °F94 %29.78 in10.0 miENE (60°)18.4 mphMostly Cloudy
3:52 AM78.8 °F77.0 °F94 %29.78 in10.0 miENE (60°)12.7 mphMostly Cloudy
3:55 AM78.6 °F76.8 °F94 %29.78 in10.0 miENE (60°)13.8 mph0.01 inMostly Cloudy
4:02 AM78.8 °F77.0 °F94 %29.78 in9.0 miENE (60°)13.8 mphMostly Cloudy
4:03 AM78.8 °F77.0 °F94 %29.78 in9.0 miENE (60°)13.8 mphMostly Cloudy
4:18 AM78.8 °F77.0 °F94 %29.78 in5.0 miENE (70°)19.6 mphRainLight Rain
4:22 AM78.8 °F77.0 °F94 %29.78 in5.0 miENE (70°)17.3 mphLight Drizzle
4:26 AM78.8 °F77.0 °F94 %29.78 in7.0 miENE (70°)17.3 mphLight Drizzle
4:28 AM78.8 °F77.0 °F94 %29.78 in9.0 miENE (60°)18.4 mph25.3 mphOvercast
4:32 AM78.8 °F77.0 °F94 %29.79 in6.0 miENE (70°)26.5 mph32.2 mphRainLight Rain
4:42 AM77.0 °F75.2 °F94 %29.79 in9.0 miENE (60°)19.6 mph27.6 mphMostly Cloudy
4:47 AM77.0 °F75.2 °F94 %29.78 in10.0 miENE (70°)20.7 mph26.5 mphMostly Cloudy
4:48 AM77.0 °F75.2 °F94 %29.78 in10.0 miENE (70°)19.6 mph26.5 mphMostly Cloudy
4:51 AM77.0 °F75.2 °F94 %29.78 in10.0 miENE (60°)19.6 mph26.5 mphOvercast
4:55 AM77.7 °F75.9 °F94 %29.79 in10.0 miENE (70°)17.3 mph26.5 mph0.01 inOvercast
5:00 AM78.8 °F75.2 °F89 %29.79 in10.0 miENE (70°)17.3 mphOvercast
5:02 AM77.0 °F75.2 °F94 %29.79 in10.0 miENE (70°)18.4 mphMostly Cloudy
5:12 AM78.8 °F77.0 °F94 %29.79 in10.0 miENE (70°)19.6 mphMostly Cloudy
5:26 AM78.8 °F77.0 °F94 %29.80 in10.0 miENE (70°)23.0 mph28.8 mphOvercast
5:55 AM79.2 °F76.5 °F91 %29.80 in10.0 miENE (70°)20.7 mphOvercast
6:55 AM79.2 °F76.3 °F91 %29.81 in10.0 miENE (70°)19.6 mph27.6 mphOvercast
7:03 AM78.8 °F77.0 °F94 %29.82 in10.0 miENE (60°)15.0 mph27.6 mphOvercast
7:17 AM78.8 °F77.0 °F94 %29.83 in10.0 miENE (70°)18.4 mph26.5 mphOvercast
7:47 AM80.6 °F77.0 °F89 %29.83 in2.5 miENE (70°)21.9 mphRainHeavy Rain
7:54 AM80.6 °F77.0 °F89 %29.84 in3.0 miENE (70°)19.6 mph26.5 mphRainLight Rain
7:55 AM80.1 °F77.4 °F91 %29.84 in5.0 miENE (70°)19.6 mph26.5 mph0.03 inRainLight Rain
8:55 AM81.0 °F77.2 °F88 %29.86 in10.0 miEast (80°)18.4 mph0.00 inMostly Cloudy
9:27 AM80.6 °F77.0 °F89 %29.86 in5.0 miENE (60°)17.3 mph25.3 mphRainLight Rain
9:29 AM80.6 °F77.0 °F89 %29.86 in4.0 miENE (60°)19.6 mph25.3 mphRainLight Rain
9:36 AM80.6 °F78.8 °F94 %29.86 in6.0 miENE (60°)20.7 mph28.8 mphOvercast
9:51 AM80.6 °F77.0 °F89 %29.86 in10.0 miENE (70°)19.6 mph27.6 mphOvercast
9:52 AM80.6 °F77.0 °F89 %29.86 in10.0 miENE (70°)19.6 mph27.6 mphOvercast
9:55 AM80.6 °F77.5 °F90 %29.86 in10.0 miENE (70°)20.7 mph27.6 mph0.01 inOvercast
9:58 AM80.6 °F77.0 °F89 %29.86 in2.5 miEast (80°)24.2 mph32.2 mphRainRain
9:59 AM80.6 °F77.0 °F89 %29.86 in2.0 miEast (80°)23.0 mph33.4 mphRainRain
10:00 AM80.6 °F77.0 °F89 %29.86 in1.8 miENE (70°)20.7 mph33.4 mphRainRain
10:07 AM80.6 °F78.8 °F94 %29.86 in2.5 miENE (70°)21.9 mph33.4 mphRainLight Rain
10:08 AM80.6 °F78.8 °F94 %29.86 in4.0 miENE (70°)21.9 mph33.4 mphRainLight Rain
10:10 AM80.6 °F78.8 °F94 %29.86 in8.0 miENE (70°)21.9 mph27.6 mphOvercast
10:14 AM80.6 °F78.8 °F94 %29.86 in10.0 miENE (70°)21.9 mphOvercast
10:25 AM80.6 °F78.8 °F94 %29.86 in10.0 miEast (80°)19.6 mph29.9 mphOvercast
10:27 AM80.6 °F78.8 °F94 %29.86 in10.0 miEast (80°)19.6 mph29.9 mphOvercast
10:49 AM82.4 °F78.8 °F89 %29.86 in10.0 miENE (70°)17.3 mph24.2 mphOvercast
10:55 AM82.0 °F78.6 °F89 %29.86 in10.0 miENE (70°)21.9 mph0.02 inMostly Cloudy
11:19 AM80.6 °F77.0 °F89 %29.85 in8.0 miENE (70°)18.4 mphDrizzle
11:29 AM80.6 °F78.8 °F94 %29.84 in7.0 miENE (70°)19.6 mph23.0 mphOvercast
11:37 AM82.4 °F78.8 °F89 %29.84 in10.0 miENE (70°)18.4 mph23.0 mphMostly Cloudy
11:55 AM83.1 °F78.1 °F85 %29.83 in10.0 miENE (70°)19.6 mph25.3 mph0.01 inMostly Cloudy
12:22 PM82.4 °F77.0 °F84 %29.83 in3.0 miENE (70°)26.5 mph32.2 mphRainRain
12:23 PM82.4 °F77.0 °F84 %29.83 in2.0 miENE (70°)23.0 mph32.2 mphRainRain
12:24 PM82.4 °F77.0 °F84 %29.83 in1.5 miENE (70°)20.7 mph32.2 mphRainRain
12:25 PM80.6 °F77.0 °F89 %29.83 in1.0 miENE (60°)20.7 mph32.2 mphRainHeavy Rain
12:26 PM80.6 °F77.0 °F89 %29.83 in0.8 miENE (70°)18.4 mph32.2 mphRainHeavy Rain
12:28 PM78.8 °F77.0 °F94 %29.83 in0.5 miENE (60°)15.0 mph32.2 mphFog-RainHeavy Rain
12:31 PM78.8 °F77.0 °F94 %29.83 in0.8 miENE (60°)15.0 mph32.2 mphRainHeavy Rain
12:34 PM78.8 °F77.0 °F94 %29.83 in1.0 miENE (60°)16.1 mph23.0 mphRainLight Rain
12:35 PM80.6 °F77.0 °F89 %29.83 in1.2 miENE (70°)17.3 mph23.0 mphRainLight Rain
12:36 PM80.6 °F77.0 °F89 %29.82 in1.8 miENE (70°)18.4 mph25.3 mphRainLight Rain
12:37 PM80.6 °F77.0 °F89 %29.82 in3.0 miENE (60°)19.6 mph25.3 mphRainLight Rain
12:39 PM80.6 °F78.8 °F94 %29.82 in8.0 miENE (60°)18.4 mph25.3 mphMostly Cloudy
12:40 PM80.6 °F78.8 °F94 %29.82 in9.0 miENE (60°)16.1 mph25.3 mphMostly Cloudy
12:55 PM81.9 °F78.3 °F89 %29.82 in10.0 miENE (70°)18.4 mph0.18 inMostly Cloudy
1:04 PM82.4 °F78.8 °F89 %29.81 in10.0 miENE (70°)17.3 mph26.5 mphMostly Cloudy
1:07 PM82.4 °F77.0 °F84 %29.81 in10.0 miENE (70°)19.6 mph26.5 mphMostly Cloudy
2:22 PM82.4 °F78.8 °F89 %29.79 in10.0 miENE (70°)17.3 mphMostly Cloudy
2:24 PM82.4 °F78.8 °F89 %29.79 in10.0 miENE (70°)15.0 mphOvercast
2:27 PM82.4 °F78.8 °F89 %29.79 in10.0 miENE (70°)17.3 mphOvercast
2:28 PM82.4 °F78.8 °F89 %29.79 in10.0 miENE (70°)18.4 mphOvercast
2:29 PM82.4 °F78.8 °F89 %29.79 in10.0 miENE (60°)17.3 mphOvercast
2:30 PM82.4 °F78.8 °F89 %29.79 in10.0 miENE (70°)17.3 mphOvercast
2:40 PM82.4 °F78.8 °F89 %29.79 in10.0 miENE (70°)18.4 mphOvercast
2:53 PM82.4 °F78.8 °F89 %29.79 in10.0 miENE (70°)18.4 mph27.6 mphOvercast
2:55 PM82.8 °F78.1 °F86 %29.78 in10.0 miENE (70°)17.3 mph27.6 mph0.00 inMostly Cloudy
3:17 PM82.4 °F77.0 °F84 %29.79 in10.0 miEast (80°)19.6 mph25.3 mphMostly Cloudy
3:21 PM82.4 °F77.0 °F84 %29.78 in10.0 miEast (80°)17.3 mph24.2 mphMostly Cloudy
3:28 PM82.4 °F77.0 °F84 %29.78 in10.0 miEast (80°)16.1 mphScattered Clouds
3:34 PM84.2 °F77.0 °F79 %29.78 in10.0 miEast (80°)15.0 mphMostly Cloudy
3:36 PM84.2 °F77.0 °F79 %29.78 in10.0 miEast (80°)16.1 mphMostly Cloudy
3:38 PM82.4 °F77.0 °F84 %29.78 in10.0 miEast (80°)15.0 mphMostly Cloudy
3:44 PM82.4 °F77.0 °F84 %29.78 in10.0 miEast (80°)15.0 mphMostly Cloudy
3:45 PM82.4 °F77.0 °F84 %29.78 in10.0 miEast (80°)15.0 mphMostly Cloudy
3:55 PM82.0 °F77.2 °F85 %29.78 in10.0 miENE (70°)18.4 mphMostly Cloudy
4:22 PM82.4 °F77.0 °F84 %29.79 in4.0 miEast (80°)21.9 mph26.5 mphRainLight Rain
4:24 PM82.4 °F77.0 °F84 %29.79 in2.5 miEast (80°)20.7 mph26.5 mphRainRain
4:31 PM80.6 °F77.0 °F89 %29.80 in3.0 miENE (70°)19.6 mph27.6 mphRainLight Rain
4:34 PM80.6 °F77.0 °F89 %29.80 in9.0 miENE (70°)20.7 mph27.6 mphMostly Cloudy
4:43 PM80.6 °F78.8 °F94 %29.81 in10.0 miENE (70°)16.1 mph25.3 mphOvercast
4:52 PM80.6 °F78.8 °F94 %29.81 in10.0 miENE (70°)15.0 mphOvercast
4:55 PM80.8 °F78.3 °F92 %29.81 in10.0 miENE (70°)15.0 mph0.02 inMostly Cloudy
4:57 PM80.6 °F78.8 °F94 %29.81 in10.0 miENE (70°)15.0 mphMostly Cloudy
5:05 PM80.6 °F78.8 °F94 %29.81 in9.0 miENE (60°)12.7 mphOvercast
5:06 PM80.6 °F78.8 °F94 %29.81 in8.0 miENE (60°)12.7 mphLight Drizzle
5:07 PM80.6 °F78.8 °F94 %29.81 in7.0 miENE (60°)16.1 mph21.9 mphLight Drizzle
5:19 PM80.6 °F77.0 °F89 %29.81 in10.0 miENE (70°)17.3 mph25.3 mphMostly Cloudy
5:22 PM80.6 °F77.0 °F89 %29.81 in10.0 miENE (70°)16.1 mph25.3 mphMostly Cloudy
5:38 PM80.6 °F77.0 °F89 %29.81 in10.0 miENE (70°)21.9 mphMostly Cloudy
5:40 PM80.6 °F77.0 °F89 %29.81 in9.0 miENE (70°)20.7 mphLight Drizzle
5:49 PM78.8 °F77.0 °F94 %29.82 in10.0 miENE (70°)18.4 mphLight Drizzle
5:50 PM78.8 °F77.0 °F94 %29.82 in10.0 miEast (80°)19.6 mphMostly Cloudy
5:51 PM78.8 °F77.0 °F94 %29.82 in10.0 miEast (80°)19.6 mphMostly Cloudy
5:55 PM79.7 °F77.2 °F92 %29.82 in8.0 miEast (80°)16.1 mph0.00 inMostly Cloudy
5:56 PM80.6 °F77.0 °F89 %29.82 in7.0 miENE (70°)15.0 mphRainLight Rain
6:09 PM78.8 °F77.0 °F94 %29.82 in8.0 miEast (80°)17.3 mph29.9 mphMostly Cloudy
6:35 PM78.8 °F77.0 °F94 %29.83 in10.0 miENE (70°)13.8 mphMostly Cloudy
6:55 PM79.9 °F77.7 °F93 %29.83 in10.0 miEast (80°)12.7 mph0.01 inOvercast
6:59 PM80.6 °F77.0 °F89 %29.84 in10.0 miENE (70°)16.1 mphOvercast
7:07 PM80.6 °F77.0 °F89 %29.84 in10.0 miENE (70°)19.6 mphOvercast
7:20 PM80.6 °F77.0 °F89 %29.85 in10.0 miENE (70°)23.0 mphRainLight Rain
7:25 PM78.8 °F77.0 °F94 %29.85 in10.0 miEast (80°)16.1 mph29.9 mphRainLight Rain
7:28 PM78.8 °F77.0 °F94 %29.85 in10.0 miEast (80°)16.1 mph29.9 mphRainLight Rain
7:29 PM78.8 °F77.0 °F94 %29.85 in10.0 miEast (80°)15.0 mph29.9 mphMostly Cloudy
7:32 PM78.8 °F77.0 °F94 %29.85 in10.0 miEast (80°)16.1 mphMostly Cloudy
7:38 PM78.8 °F77.0 °F94 %29.85 in10.0 miENE (70°)15.0 mphMostly Cloudy
7:40 PM80.6 °F77.0 °F89 %29.85 in10.0 miENE (70°)16.1 mph21.9 mphMostly Cloudy
7:54 PM80.6 °F77.0 °F89 %29.86 in10.0 miEast (80°)18.4 mph26.5 mphMostly Cloudy
7:55 PM79.9 °F77.4 °F92 %29.86 in10.0 miEast (80°)17.3 mph26.5 mph0.00 inOvercast
7:59 PM80.6 °F77.0 °F89 %29.86 in10.0 miEast (80°)18.4 mph26.5 mphOvercast
8:05 PM80.6 °F77.0 °F89 %29.86 in10.0 miENE (70°)18.4 mphOvercast
8:19 PM80.6 °F77.0 °F89 %29.86 in10.0 miENE (70°)21.9 mphMostly Cloudy
8:21 PM80.6 °F77.0 °F89 %29.86 in10.0 miEast (80°)19.6 mphMostly Cloudy
8:31 PM80.6 °F77.0 °F89 %29.86 in10.0 miENE (70°)20.7 mph27.6 mphMostly Cloudy
8:38 PM80.6 °F77.0 °F89 %29.87 in10.0 miENE (70°)21.9 mphMostly Cloudy
8:44 PM80.6 °F77.0 °F89 %29.87 in10.0 miEast (80°)17.3 mph24.2 mphMostly Cloudy
8:47 PM80.6 °F77.0 °F89 %29.87 in10.0 miEast (80°)17.3 mph24.2 mphScattered Clouds
8:55 PM80.1 °F76.5 °F89 %29.87 in10.0 miENE (70°)17.3 mph26.5 mphMostly Cloudy
8:59 PM80.6 °F77.0 °F89 %29.87 in10.0 miENE (70°)19.6 mph26.5 mphMostly Cloudy
9:08 PM80.6 °F77.0 °F89 %29.87 in10.0 miEast (80°)17.3 mph25.3 mphMostly Cloudy
9:10 PM80.6 °F77.0 °F89 %29.87 in10.0 miEast (80°)18.4 mph25.3 mphScattered Clouds
9:19 PM80.6 °F77.0 °F89 %29.87 in10.0 miENE (70°)18.4 mphMostly Cloudy
9:55 PM80.1 °F77.0 °F90 %29.88 in10.0 miENE (70°)18.4 mphMostly Cloudy
10:11 PM80.6 °F77.0 °F89 %29.87 in10.0 miEast (80°)15.0 mphMostly Cloudy
10:15 PM80.6 °F77.0 °F89 %29.87 in10.0 miEast (80°)17.3 mphMostly Cloudy
10:26 PM80.6 °F77.0 °F89 %29.87 in10.0 miEast (80°)15.0 mphMostly Cloudy
10:28 PM80.6 °F77.0 °F89 %29.87 in10.0 miENE (70°)16.1 mphScattered Clouds
10:40 PM80.6 °F77.0 °F89 %29.87 in10.0 miENE (70°)15.0 mphMostly Cloudy
10:55 PM80.1 °F77.0 °F90 %29.87 in10.0 miENE (70°)17.3 mph23.0 mphMostly Cloudy
11:06 PM78.8 °F77.0 °F94 %29.88 in8.0 miENE (60°)16.1 mph23.0 mphRainLight Rain
11:15 PM78.8 °F75.2 °F89 %29.88 in8.0 miENE (70°)17.3 mphLight Drizzle
11:22 PM78.8 °F75.2 °F89 %29.88 in5.0 miEast (80°)16.1 mphRainLight Rain
11:24 PM78.8 °F75.2 °F89 %29.88 in5.0 miEast (90°)17.3 mphRainLight Rain
11:25 PM78.8 °F75.2 °F89 %29.88 in4.0 miEast (100°)18.4 mph24.2 mphRainLight Rain
11:30 PM78.8 °F75.2 °F89 %29.88 in4.0 miEast (90°)17.3 mph24.2 mphRainLight Rain
11:32 PM77.0 °F75.2 °F94 %29.88 in3.0 miEast (80°)16.1 mph24.2 mphRainLight Rain
11:34 PM77.0 °F75.2 °F94 %29.88 in2.5 miEast (80°)16.1 mph24.2 mphRainRain
11:35 PM77.0 °F75.2 °F94 %29.88 in2.5 miEast (80°)16.1 mph24.2 mphRainRain
11:36 PM77.0 °F75.2 °F94 %29.88 in3.0 miEast (80°)15.0 mphRainRain
11:37 PM77.0 °F75.2 °F94 %29.88 in3.0 miEast (90°)13.8 mphRainRain
11:39 PM77.0 °F75.2 °F94 %29.87 in4.0 miEast (80°)11.5 mphRainLight Rain
11:45 PM77.0 °F75.2 °F94 %29.87 in10.0 miEast (80°)11.5 mphScattered Clouds
11:55 PM77.7 °F75.7 °F94 %29.88 in10.0 miEast (80°)11.5 mph0.06 inPartly Cloudy
11:58 PM77.0 °F75.2 °F94 %29.88 in10.0 miEast (80°)11.5 mphScattered Clouds
Hourly data recorded from PGUA, located miles away from Umatac, Guam







STORIES FROM OUR PARTNERS